Weather in Borisovka

Russia / Primorsky Krai     43°48′17″N   131°48′44″E
temp.,
°C
wind,
m/s
gust,
m/s
humid.,
%
clouds,
%
prec.,
mm/h
press.,
hPa
HPBL,
m
3 march, wed
wed301:00−15nw22890 0.0 103021
04:00−15se00890 0.0 103020
07:00−15se12860 0.0 103020
10:00−10sse497250 0.0 1029380
13:00−4s8147098 0.0 1026876
16:00−1s9158699 0.1 10231213
19:00−1s81592100 0.8 1022866
22:00−1s71690100 1.4 1022705
4 march, thu
thu401:00−1s6168999 0.1 1021485
04:00−2s6139169 0.1 1020293
07:00−2s5109369 0.0 1019221
10:000s6118876 0.0 1019328
13:00+3s7128696 0.0 1017381
16:00+3sse8137884 0.0 1015392
19:00+1s7138341 0.0 1015290
22:00−1s5108950 0.0 1016207
5 march, fri
fri501:00−1s58869 0.0 1016157
04:00−1s458822 0.0 101696
07:00−1s338696 0.0 101650
10:00+1nw118698 0.1 101861
13:000nnw71064100 0.3 1020901
16:00−2nnw81242100 0.3 10231456
19:00−6nw8124567 0.0 10281365
22:00−10nnw9134433 0.0 10321362
6 march, sat
sat601:00−13nnw711480 0.0 10351106
04:00−14nnw610510 0.0 10371037
07:00−15nnw510510 0.0 1038942
10:00−13nnw58450 0.0 1039892
13:00−10nnw46400 0.0 10371162
16:00−7n34370 0.0 10351171
19:00−8e22470 0.0 1034234
22:00−10sse12640 0.0 103688
7 march, sun
sun701:00−10s12630 0.0 103440
04:00−11s12660 0.0 103443
07:00−11s22670 0.0 103345
10:00−9sse23550 0.0 1031208
13:00−3sse46450 0.0 1028444
16:000sse68510 0.0 1025532
19:00−3sse611710 0.0 1024285
22:00−4s34760 0.0 102695